Wind_Speed
22 19 18 16 14 10 8 6 9 10 22 18 19 17 16 14 11 13 11 9 8 8 7 7 5 7 6 8 8 8 9 9 9 7 5 5 7 10 12 14 15 15 15 15 15 16 16 17 18
27 23 21 19 16 13 13 12 7 12 17 13 16 17 16 15 14 11 13 12 10 9 7 6 5 5 4 6 7 7 7 7 5 5 6 7 10 12 14 15 17 18 17 17 17 17 19 19 19
31 29 24 21 19 17 14 14 11 8 23 22 19 19 17 16 14 14 14 12 9 7 6 5 4 2 3 4 5 6 5 5 4 6 8 10 12 13 14 16 17 17 19 19 19 19 19 20 20
33 33 29 24 20 19 19 17 15 6 24 26 22 16 15 15 15 16 17 14 10 9 6 6 4 3 2 3 3 2 2 3 5 6 9 10 12 15 15 15 16 18 19 20 20 19 20 21 21
36 35 34 27 23 22 21 21 18 11 31 30 20 18 17 16 17 15 12 8 6 6 7 6 5 4 4 3 2 2 3 4 6 7 9 12 14 13 13 15 16 18 19 20 20 20 21 20 20
38 37 36 31 27 26 23 25 19 13 35 31 25 21 18 15 17 14 9 7 4 5 6 5 5 5 6 5 5 5 6 6 7 9 11 12 11 12 13 14 16 18 18 18 19 20 20 20 19
41 39 36 35 32 28 27 26 23 17 35 37 30 25 19 15 15 10 7 5 5 6 5 5 5 6 6 7 7 7 8 9 10 10 10 8 11 12 13 14 16 17 17 17 19 20 20 19 18
43 42 38 37 33 29 30 29 29 25 24 27 25 19 22 20 15 11 10 8 8 8 8 6 6 8 9 9 9 9 10 10 11 8 7 9 11 12 13 14 14 15 16 17 18 19 19 19 17
47 46 40 36 35 31 32 35 34 29 25 20 17 22 27 22 20 15 15 12 10 10 10 8 8 9 11 12 12 12 12 11 7 6 8 10 11 11 12 13 13 14 15 16 17 18 18 18 16
47 47 40 37 36 42 36 39 40 34 31 27 24 14 22 26 26 18 17 13 13 15 13 9 9 10 11 11 11 10 9 7 7 8 9 10 11 12 12 12 13 13 14 15 16 16 17 17 16
46 44 42 41 39 44 43 40 42 38 37 29 30 33 27 26 23 20 17 15 14 16 14 11 10 11 12 11 9 9 9 9 10 10 10 10 12 12 12 13 12 13 14 15 15 15 16 15 15
44 41 45 44 43 44 45 44 44 43 37 33 34 42 25 29 23 17 11 12 15 15 16 15 12 13 13 14 12 12 12 12 12 12 12 13 12 12 12 13 13 13 14 14 15 15 14 15 16
44 39 44 48 47 46 50 45 44 46 45 42 41 37 34 30 27 23 18 16 16 19 20 17 15 16 17 16 15 15 14 15 15 14 15 14 13 12 13 13 14 15 14 14 15 15 15 16 16
42 42 46 48 51 49 49 52 51 46 45 44 43 43 41 38 33 29 20 17 18 20 24 22 19 18 20 19 18 17 16 16 17 16 17 16 15 14 13 14 15 16 16 16 16 16 17 18 18
41 42 45 46 48 54 50 49 61 48 50 49 43 42 43 36 41 37 27 23 18 19 20 20 23 23 22 22 21 21 19 18 18 18 18 18 17 15 16 16 17 17 16 17 17 18 19 20 20
44 44 43 39 45 52 57 53 47 38 49 41 43 48 47 40 42 39 32 27 20 25 28 22 26 25 23 23 25 24 21 20 20 19 19 19 18 18 18 18 19 19 19 19 19 19 20 22 23
46 45 41 38 41 47 55 59 50 44 48 49 42 42 48 44 45 42 35 26 25 26 33 23 26 28 25 25 26 27 24 22 21 20 21 21 20 20 20 21 20 21 22 22 22 23 23 25 25
43 44 42 40 38 45 51 56 55 47 52 46 52 53 50 46 48 43 34 29 32 33 28 25 27 27 27 25 25 26 26 24 23 22 22 23 22 22 22 21 21 23 23 24 23 25 25 26 28
41 43 43 41 39 42 47 54 53 49 51 48 41 61 57 47 46 47 40 40 41 34 33 29 28 25 27 26 27 26 27 26 25 23 23 23 22 22 22 22 22 23 24 25 25 27 26 26 27
42 42 41 40 39 42 43 51 53 53 53 49 37 42 54 51 48 51 53 43 42 35 35 29 20 23 25 27 26 28 28 27 27 25 26 23 23 24 23 23 23 24 26 27 27 28 29 27 27
41 42 43 42 40 44 44 48 50 52 54 53 39 39 38 47 50 50 47 43 45 38 36 28 25 28 27 28 25 28 31 30 29 28 26 24 26 26 26 25 25 27 28 29 28 29 30 30 29
43 42 45 45 44 46 47 51 48 49 53 54 52 41 41 44 40 37 51 48 42 37 30 26 29 30 31 31 30 28 28 28 28 26 25 27 28 28 28 28 28 30 32 32 31 30 30 30 31
40 42 44 45 47 49 47 54 47 48 50 52 52 45 44 42 39 41 33 44 45 40 32 29 32 34 36 33 31 32 29 28 25 27 28 30 30 30 31 31 32 33 34 34 33 31 30 31 31
38 39 41 44 46 51 47 51 53 47 46 47 47 47 47 47 45 43 37 39 38 38 33 34 33 38 41 35 32 34 32 31 30 27 29 32 32 33 34 34 35 36 36 36 35 33 32 32 33
38 40 43 45 47 51 48 49 52 45 45 44 44 47 47 49 49 47 43 36 35 36 36 36 34 35 31 30 30 30 29 32 31 30 33 34 36 36 35 37 37 37 37 36 35 35 34 34 37
41 40 44 46 46 47 45 49 48 46 47 49 49 49 51 53 49 48 47 45 44 37 36 32 32 29 31 29 28 29 25 28 31 34 36 37 38 38 38 39 39 38 38 36 35 36 36 37 38
38 39 41 45 48 49 50 47 49 50 49 51 51 52 55 55 53 48 49 50 49 47 40 33 31 30 32 33 31 31 28 27 32 37 37 37 37 39 40 40 39 38 38 37 36 37 38 39 39
39 39 41 42 48 51 50 48 51 50 49 51 50 50 51 56 53 48 46 49 52 50 46 41 38 36 33 36 30 35 31 30 29 35 36 38 39 41 40 40 38 38 38 38 37 37 39 40 41
45 45 42 42 45 49 52 52 54 52 51 51 53 50 50 53 56 55 49 48 52 51 48 46 42 38 36 34 33 35 35 24 26 28 32 37 39 41 40 40 40 40 40 38 37 38 39 42 42
53 52 50 50 45 47 51 54 57 55 52 49 47 48 50 53 54 56 56 51 51 52 47 45 38 35 37 38 39 40 42 34 36 35 36 39 40 41 40 41 41 41 40 39 39 40 42 41 38
Wind_Direction
235 227 225 216 226 249 259 266 268 208 176 180 175 174 175 160 164 157 157 160 159 168 174 178 182 143 123 105 96 85 81 82 84 70 46 19 0 354 351 348 345 342 343 342 341 337 338 339 340
238 233 228 226 224 236 251 264 249 255 168 168 178 165 165 160 162 153 148 148 161 172 177 187 186 145 113 93 87 85 86 79 54 14 4 355 344 344 341 341 339 338 344 348 349 350 348 346 348
234 237 232 228 224 227 234 257 270 242 171 173 175 165 166 165 168 161 155 144 150 161 164 189 197 154 99 74 78 84 66 43 3 350 342 338 337 334 336 339 341 346 347 347 348 348 344 342 345
235 234 236 230 225 221 227 243 255 257 174 166 153 152 158 152 175 175 160 148 149 151 167 186 192 180 126 113 104 85 30 352 328 327 328 330 328 332 341 346 345 343 341 341 340 340 341 344 346
233 232 234 229 226 224 229 242 248 257 200 175 162 154 156 150 155 157 145 140 149 169 181 192 200 192 174 170 173 229 265 285 302 316 319 324 327 337 343 341 339 337 336 336 335 338 340 345 349
230 232 230 230 229 226 229 236 247 269 191 205 185 168 162 156 153 133 133 142 170 198 195 203 216 231 230 234 236 247 266 281 292 309 317 323 328 332 333 333 333 332 330 334 333 334 339 346 351
234 230 229 226 230 229 232 234 235 224 199 209 187 172 167 158 140 131 146 170 198 224 222 222 232 243 250 251 256 261 274 286 298 311 313 315 318 322 325 330 328 325 327 331 333 335 342 347 348
233 231 226 225 228 230 231 233 232 234 232 229 221 175 177 166 152 156 184 200 213 241 240 245 258 262 254 246 250 259 270 281 296 293 293 307 310 316 321 319 319 321 328 333 335 334 340 340 343
228 231 225 224 224 224 225 230 229 228 213 201 178 203 200 175 165 184 197 203 227 245 245 246 256 264 263 253 247 251 263 275 268 271 288 294 301 308 308 311 314 323 327 330 330 330 334 333 334
232 231 226 225 224 228 208 222 229 214 216 203 196 200 185 181 181 182 203 205 223 237 238 246 253 261 260 256 254 254 252 247 256 266 275 289 294 296 302 311 316 323 320 324 325 326 329 329 328
235 232 228 227 228 233 227 209 226 217 220 200 208 228 215 194 183 181 197 211 220 242 245 247 256 263 261 256 245 238 241 249 255 265 274 279 283 291 303 308 314 317 316 317 317 321 322 320 322
237 234 228 227 230 235 240 216 219 212 201 199 214 215 197 200 193 189 222 217 223 246 252 252 246 258 261 257 251 248 249 256 261 266 270 272 280 289 297 304 307 310 311 312 311 315 313 312 316
235 232 231 226 232 235 240 234 216 219 213 206 211 215 217 219 208 204 213 207 218 238 245 245 243 249 255 254 252 252 255 260 264 267 269 273 276 282 289 296 303 307 308 308 307 306 308 307 312
234 231 232 227 224 236 245 238 228 208 211 208 210 215 210 207 213 215 210 213 217 242 241 239 235 241 250 251 253 253 254 259 264 264 268 270 274 279 287 291 297 302 304 306 304 305 304 305 310
233 231 232 230 226 232 240 243 239 237 211 211 220 219 217 223 231 221 209 220 224 240 239 242 231 234 242 249 251 250 251 256 263 265 267 267 271 280 283 288 292 293 297 296 300 304 302 303 306
236 234 233 233 233 229 238 239 244 251 214 212 220 220 217 220 224 218 207 217 222 230 221 237 239 238 244 250 253 252 247 252 260 265 267 269 274 275 279 280 284 289 290 293 298 297 296 299 302
238 238 236 236 236 234 236 239 239 241 240 208 215 221 220 221 223 218 208 208 217 225 228 227 239 238 242 247 249 253 251 252 260 266 269 269 269 270 273 276 281 287 292 298 301 302 304 303 303
244 243 241 237 240 235 236 239 242 241 245 238 225 214 214 216 223 218 210 207 217 223 226 230 235 238 239 241 244 246 251 254 260 264 265 263 265 268 271 277 284 290 294 298 302 303 301 303 306
244 246 243 239 240 241 236 238 238 242 249 249 228 231 221 216 220 223 212 207 215 227 223 232 233 235 238 242 243 245 251 255 258 260 264 262 265 268 272 278 282 288 293 298 302 301 304 304 304
243 246 246 241 241 244 240 237 237 239 246 252 242 251 231 222 221 225 228 215 216 229 226 231 259 258 246 246 249 251 253 255 259 259 259 261 264 268 271 274 280 287 293 298 300 301 301 303 307
246 247 245 244 239 240 240 239 240 238 242 249 244 244 248 237 237 235 230 224 222 227 233 239 263 267 263 254 257 255 253 255 256 258 262 257 260 263 266 272 279 286 290 293 297 299 300 303 304
243 247 247 246 241 239 241 240 238 239 240 244 246 240 245 247 244 244 239 241 235 232 241 252 260 266 262 260 264 257 254 254 258 262 260 254 256 261 266 273 279 285 288 292 294 297 299 301 301
245 247 248 247 245 240 239 245 234 239 239 242 248 244 242 245 248 246 242 247 252 243 246 248 244 250 259 262 270 260 254 253 259 265 262 258 256 261 266 272 278 284 288 291 294 296 297 298 301
245 247 246 246 246 244 240 244 242 237 243 242 242 245 241 240 245 245 240 240 244 244 236 238 248 254 253 260 264 258 257 257 260 262 261 257 256 260 266 271 277 283 286 290 293 295 297 299 303
239 240 243 243 243 248 242 240 247 243 242 242 239 238 243 235 235 234 234 228 225 239 236 238 242 245 250 261 263 258 252 254 257 257 258 261 260 262 266 270 275 281 283 287 291 293 296 300 302
242 238 242 245 241 247 242 243 246 243 238 238 235 235 237 239 237 236 239 232 236 235 233 233 233 236 249 263 272 270 252 252 252 254 254 257 260 263 265 269 274 278 282 286 289 292 296 299 302
247 244 245 247 244 243 240 245 245 242 239 238 236 232 234 235 241 236 236 235 228 223 219 221 237 238 240 254 265 273 270 267 258 254 257 258 260 261 264 268 272 277 282 286 289 293 295 297 300
251 251 249 248 248 246 245 242 244 245 245 242 241 237 236 236 235 236 238 236 229 226 220 221 230 237 238 246 257 267 275 270 259 257 257 258 258 261 264 267 272 277 281 285 289 292 293 296 297
255 252 252 252 247 249 247 245 243 243 245 246 247 244 239 238 235 231 234 236 228 226 224 225 222 233 234 239 249 256 268 250 260 261 258 259 261 264 267 270 273 277 281 286 289 290 292 294 295
253 252 254 256 252 248 249 249 246 246 247 248 249 246 246 241 237 235 234 231 226 231 234 230 232 236 228 227 240 248 256 258 263 270 267 264 266 268 270 271 275 278 281 285 287 290 292 290 289
Height
5897 5899 5901 5904 5908 5907 5908 5908 5907 5908 5911 5914 5913 5914 5917 5918 5920 5922 5923 5925 5928 5931 5932 5933 5935 5935 5934 5934 5935 5936 5938 5939 5940 5940 5941 5941 5941 5940 5939 5938 5937 5936 5935 5933 5932 5930 5929 5927 5924
5894 5896 5899 5902 5905 5906 5906 5906 5908 5908 5910 5913 5913 5915 5917 5918 5920 5922 5923 5925 5928 5931 5932 5934 5936 5935 5935 5935 5936 5937 5938 5940 5941 5941 5941 5941 5940 5940 5938 5937 5936 5935 5934 5932 5931 5930 5928 5926 5925
5891 5892 5897 5899 5902 5904 5905 5905 5906 5907 5909 5912 5913 5913 5916 5917 5919 5922 5923 5926 5928 5930 5932 5935 5936 5936 5935 5936 5936 5938 5939 5940 5940 5941 5940 5940 5940 5939 5938 5937 5935 5933 5932 5931 5930 5929 5927 5925 5925
5886 5890 5894 5896 5899 5902 5902 5903 5905 5909 5910 5913 5911 5914 5917 5917 5919 5921 5922 5924 5927 5929 5932 5934 5935 5935 5935 5936 5936 5938 5939 5939 5939 5940 5940 5939 5939 5938 5937 5936 5934 5933 5931 5930 5929 5928 5926 5924 5923
5880 5884 5888 5894 5897 5899 5901 5901 5904 5906 5910 5910 5911 5913 5915 5917 5918 5919 5920 5923 5927 5929 5931 5932 5934 5934 5935 5935 5936 5937 5938 5938 5938 5939 5939 5939 5938 5937 5937 5935 5934 5932 5931 5929 5928 5926 5924 5923 5921
5874 5879 5884 5890 5893 5895 5898 5898 5902 5903 5907 5908 5910 5911 5914 5916 5916 5916 5920 5923 5927 5930 5930 5931 5933 5934 5934 5935 5936 5936 5937 5937 5937 5938 5938 5937 5937 5937 5936 5935 5933 5931 5930 5929 5927 5925 5923 5922 5920
5867 5872 5879 5884 5887 5891 5894 5896 5899 5902 5903 5905 5908 5907 5908 5911 5912 5915 5920 5923 5926 5929 5930 5931 5932 5933 5933 5934 5934 5935 5935 5936 5936 5936 5936 5936 5936 5936 5935 5934 5932 5931 5930 5928 5926 5925 5923 5921 5919
5862 5866 5872 5878 5883 5886 5889 5892 5894 5899 5903 5908 5906 5904 5905 5907 5911 5915 5919 5922 5924 5927 5929 5930 5930 5931 5932 5932 5932 5933 5933 5934 5935 5935 5935 5935 5935 5935 5934 5932 5932 5930 5929 5928 5926 5924 5922 5920 5919
5854 5858 5866 5873 5877 5880 5883 5886 5891 5895 5897 5902 5904 5906 5904 5905 5908 5914 5917 5919 5922 5925 5927 5928 5929 5929 5930 5930 5930 5930 5931 5932 5933 5933 5933 5933 5933 5933 5932 5931 5930 5929 5928 5926 5925 5923 5921 5920 5919
5846 5852 5863 5867 5870 5869 5871 5877 5885 5892 5893 5900 5901 5903 5905 5904 5906 5909 5913 5915 5919 5922 5925 5925 5926 5927 5928 5927 5928 5928 5929 5930 5931 5931 5931 5932 5932 5931 5931 5930 5928 5927 5926 5925 5924 5922 5920 5920 5919
5839 5848 5857 5860 5862 5862 5865 5870 5875 5884 5889 5894 5899 5901 5904 5903 5904 5905 5909 5912 5914 5919 5922 5922 5923 5924 5925 5926 5926 5926 5927 5928 5928 5929 5928 5929 5929 5929 5929 5928 5926 5925 5924 5923 5922 5921 5919 5918 5917
5832 5843 5847 5852 5855 5856 5858 5865 5867 5875 5883 5886 5887 5890 5896 5899 5900 5900 5904 5908 5909 5916 5918 5919 5920 5922 5923 5924 5924 5924 5924 5925 5926 5926 5926 5926 5927 5926 5926 5925 5924 5923 5922 5921 5920 5919 5918 5916 5915
5825 5835 5838 5844 5847 5849 5848 5856 5858 5867 5874 5880 5880 5885 5890 5893 5895 5896 5899 5903 5906 5910 5913 5915 5916 5918 5920 5921 5921 5921 5922 5922 5923 5923 5924 5924 5924 5923 5923 5922 5922 5920 5920 5919 5918 5917 5916 5914 5912
5818 5824 5828 5833 5840 5840 5839 5846 5846 5856 5864 5870 5875 5878 5881 5885 5889 5890 5895 5899 5901 5904 5908 5911 5912 5914 5916 5917 5918 5918 5919 5920 5920 5920 5921 5921 5920 5920 5920 5919 5918 5917 5916 5916 5915 5914 5913 5911 5910
5811 5815 5819 5826 5833 5834 5834 5837 5840 5851 5853 5862 5866 5872 5877 5881 5883 5886 5891 5893 5895 5899 5902 5905 5907 5909 5911 5912 5913 5915 5915 5916 5916 5917 5917 5917 5917 5916 5917 5916 5916 5915 5914 5913 5912 5910 5909 5908 5906
5803 5807 5812 5821 5825 5829 5826 5833 5839 5845 5843 5850 5856 5863 5869 5873 5876 5878 5884 5888 5890 5893 5895 5900 5902 5904 5906 5907 5907 5909 5910 5911 5912 5913 5913 5912 5912 5913 5912 5913 5913 5912 5912 5911 5909 5908 5907 5905 5903
5795 5800 5806 5813 5815 5818 5819 5823 5831 5833 5830 5834 5845 5852 5861 5866 5868 5870 5876 5881 5884 5886 5890 5894 5896 5898 5900 5902 5904 5903 5904 5906 5907 5908 5908 5908 5908 5909 5909 5910 5908 5907 5907 5905 5905 5904 5903 5901 5899
5790 5794 5798 5804 5806 5806 5810 5813 5817 5820 5822 5837 5838 5837 5845 5856 5863 5865 5870 5875 5878 5879 5883 5887 5890 5891 5894 5896 5898 5899 5899 5901 5902 5903 5903 5904 5904 5905 5905 5905 5904 5903 5902 5901 5899 5899 5898 5896 5893
5781 5784 5789 5795 5797 5796 5801 5802 5806 5810 5811 5823 5832 5835 5839 5843 5853 5856 5859 5866 5869 5873 5877 5879 5882 5884 5886 5889 5892 5893 5894 5895 5896 5896 5897 5898 5899 5899 5900 5899 5899 5898 5897 5896 5895 5894 5894 5892 5889
5773 5776 5780 5784 5786 5786 5790 5793 5797 5802 5805 5811 5824 5826 5835 5839 5843 5848 5853 5860 5862 5866 5869 5874 5875 5876 5879 5882 5885 5886 5888 5889 5890 5890 5890 5893 5893 5893 5894 5894 5894 5893 5892 5891 5889 5890 5888 5887 5885
5764 5767 5770 5773 5775 5776 5779 5783 5788 5796 5799 5802 5813 5821 5827 5833 5839 5844 5848 5852 5854 5857 5862 5865 5865 5868 5871 5874 5877 5879 5881 5881 5881 5882 5884 5886 5886 5888 5888 5888 5888 5887 5886 5885 5884 5884 5883 5881 5880
5753 5756 5757 5761 5765 5769 5767 5772 5780 5788 5792 5794 5803 5813 5819 5825 5830 5833 5840 5842 5846 5851 5852 5857 5859 5862 5863 5866 5868 5872 5874 5874 5874 5876 5877 5878 5880 5881 5881 5881 5881 5881 5881 5879 5879 5877 5876 5875 5873
5746 5744 5746 5750 5753 5756 5764 5763 5777 5778 5782 5788 5795 5804 5810 5813 5818 5823 5828 5835 5840 5840 5843 5848 5850 5856 5856 5859 5860 5864 5866 5866 5867 5869 5870 5871 5873 5874 5874 5875 5875 5875 5874 5873 5872 5870 5869 5868 5867
5734 5735 5737 5739 5741 5746 5758 5755 5762 5773 5777 5781 5786 5788 5796 5802 5806 5810 5816 5822 5826 5827 5832 5839 5843 5847 5849 5852 5853 5855 5857 5857 5858 5860 5861 5863 5865 5866 5867 5867 5868 5868 5866 5866 5865 5863 5861 5859 5858
5723 5725 5727 5729 5731 5739 5744 5745 5753 5766 5770 5774 5776 5776 5779 5785 5791 5797 5802 5809 5813 5817 5824 5830 5833 5838 5842 5844 5845 5845 5848 5849 5850 5852 5853 5855 5856 5858 5859 5859 5860 5861 5859 5858 5857 5855 5852 5850 5848
5716 5716 5718 5717 5724 5730 5730 5737 5748 5752 5754 5756 5763 5766 5769 5773 5781 5787 5792 5797 5803 5810 5816 5821 5824 5829 5833 5836 5836 5836 5840 5840 5841 5843 5844 5846 5847 5849 5850 5851 5852 5853 5852 5851 5849 5847 5844 5842 5840
5708 5709 5710 5709 5714 5716 5721 5730 5734 5736 5741 5744 5750 5755 5759 5763 5769 5777 5782 5786 5792 5798 5805 5812 5817 5820 5824 5828 5828 5829 5830 5832 5833 5835 5837 5839 5839 5840 5842 5843 5844 5844 5844 5843 5840 5838 5836 5834 5832
5697 5700 5701 5702 5703 5705 5711 5719 5720 5723 5729 5734 5738 5743 5747 5752 5758 5765 5771 5777 5782 5788 5793 5799 5806 5810 5815 5819 5820 5821 5824 5823 5825 5828 5829 5830 5830 5832 5833 5835 5834 5834 5833 5832 5831 5829 5827 5826 5824
5685 5687 5690 5693 5694 5695 5700 5705 5704 5710 5715 5720 5725 5731 5736 5740 5746 5753 5760 5767 5773 5778 5783 5789 5792 5799 5804 5809 5813 5815 5816 5817 5819 5821 5822 5822 5822 5823 5825 5825 5825 5824 5823 5823 5821 5820 5819 5817 5815
5672 5674 5678 5679 5684 5686 5688 5689 5693 5697 5702 5708 5713 5718 5723 5730 5734 5741 5748 5755 5761 5768 5773 5779 5783 5789 5794 5800 5804 5807 5807 5809 5811 5813 5813 5813 5815 5815 5816 5816 5815 5815 5814 5814 5812 5810 5809 5808 5807